Regional Weather Roundup
Issued by NWS

Home | Current Version | Previous Version | Text Only | Print | Product List | Glossary Off
Versions: 1 2 3 4 5 6 7 8 9 10 11 12 13 14 15 16 17 18 19 20 21 22 23 24 25 26 27 28 29 30 31 32 33 34 35 36 37 38 39 40 41 42 43 44 45 46 47 48 49 50

000
ASUS43 KIND 300959
RWRIN

WEATHER ROUNDUP FOR INDIANA
NATIONAL WEATHER SERVICE INDIANAPOLIS IN
600 AM EDT THU MAR 30 2017

NOTE: "FAIR" INDICATES FEW OR NO CLOUDS BELOW 12,000 FEET WITH NO
SIGNIFICANT WEATHER AND/OR OBSTRUCTIONS TO VISIBILITY.

* - STATION DOES NOT REPORT WEATHER SUCH AS PRECIPITATION OR FOG.

+ - STATION NOT QUALITY CONTROLLED BY THE NATIONAL WEATHER SERVICE.
    USE DATA WITH CAUTION...ESPECIALLY DEWPOINT AND RELATIVE
    HUMIDITY OBSERVATIONS.

INZ001>003-010>013-019-020-301100-
NORTHWEST INDIANA

CITY           SKY/WX    TMP DP  RH WIND       PRES   REMARKS
GARY /AIRPORT/ LGT RAIN  43  41  93 E17G29    29.85F
KNOX *+        CLOUDY    41  28  60 E12       29.89S
MONTICELLO +   LGT RAIN  46  38  73 E9        29.81S

$$

LMZ046-743>745-301100-
SOUTHERN LAKE MICHIGAN

STATION/POSITION TIME  TEMP    WIND        PRES    WAVE
                       AIR SEA DIR/SP/G            HT
                 (UTC) (F)     (DEG/KT/KT) (MB)    (FT)
BURNS HARBOR     0940   42      90/ 14/ 21 1011.9F
MICHIGAN CITY    0930   41      30/ 17/ 19   N/A

$$

INZ004-005-014>016-021>024-301100-
NORTH CENTRAL INDIANA

CITY           SKY/WX    TMP DP  RH WIND       PRES   REMARKS
GOSHEN         LGT RAIN  42  35  76 NE12      29.93R
SOUTH BEND     LGT RAIN  40  37  89 E14G24    29.92F

$$

INZ006>009-017-018-025>027-301100-
NORTHEAST INDIANA

CITY           SKY/WX    TMP DP  RH WIND       PRES   REMARKS
ANGOLA *+      CLOUDY    39  36  87 E22       29.88F
FORT WAYNE     CLOUDY    42  36  79 E21G28    29.88F THUNDER
KENDALLVILLE + LGT RAIN  40  36  86 E12G24    29.90S

$$

INZ028-029-035-036-043>045-051>053-301100-
WEST CENTRAL INDIANA

CITY           SKY/WX    TMP DP  RH WIND       PRES   REMARKS
CRAWFORDSVL +  CLOUDY    51  46  82 E12       29.76F
GREENCASTLE +  CLOUDY    52  45  76 E6        29.77F
LAFAYETTE      LGT RAIN  48  43  82 E13       29.78F
TERRE HAUTE    CLOUDY    55  47  74 CALM      29.74F

$$

INZ030>032-037>040-046>048-054>057-064-065-301100-
CENTRAL INDIANA

CITY           SKY/WX    TMP DP  RH WIND       PRES   REMARKS
GREENWOOD *+   CLOUDY    53  46  79 E8        29.81F
INDIANAPOLIS   CLOUDY    53  45  74 E12       29.79F
-EAGLE CREEK   MOCLDY    53  44  71 E12       29.79F
KOKOMO +       LGT RAIN  45  39  79 E14       29.83F
SHELBYVILLE    CLOUDY    53  44  71 E7        29.80F

$$

INZ033-034-041-042-049-050-058-059-301100-
EAST CENTRAL INDIANA

CITY           SKY/WX    TMP DP  RH WIND       PRES   REMARKS
MUNCIE         CLOUDY    47  40  76 E15       29.83F
RICHMOND +     CLOUDY    46  39  76 E16       29.86F

$$

INZ060-061-067>069-081>083-085>088-301100-
SOUTHWEST INDIANA

CITY           SKY/WX    TMP DP  RH WIND       PRES   REMARKS
EVANSVILLE     CLOUDY    62  53  72 SE5       29.73F
HUNTINGBURG *+ MOCLDY    59  52  77 CALM      29.74F

$$

INZ062-063-066-070>080-084-089>092-301100-
SOUTH CENTRAL AND SOUTHEAST INDIANA

CITY           SKY/WX    TMP DP  RH WIND       PRES   REMARKS
BLOOMINGTON    MOCLDY    54  45  71 SE9       29.76F
MADISON *+     CLOUDY    52  45  76 E8        29.83F
SEYMOUR +      CLOUDY    54  46  76 SE6       29.80F

$$




USA.gov is the U.S. government's official web portal to all federal, state and local government web resources and services.